星链-32654 (STARLINK-32654)

导读 | 豆包AI

STARLINK-32654是美国SpaceX公司于2024年12月13日发射的第二代星链(Starlink)卫星,隶属于星链低轨宽带通信星座。该卫星为量产型第二代主力卫星,重量约1250公斤,设计寿命5-7年,运行于低地球轨道,采用Ku/Ka波段通信、光学星间链路与自主避撞技术,旨在为全球提供高速宽带互联网服务,寿命末期会主动离轨再入大气层销毁。

基本信息
目录编号:
62322
目录名称:
STARLINK-32654
国际标识:
2024-239X
轨道中心:
EARTH
卫星名称:
星链-32654
卫星全名:
星链-32654 (STARLINK-32654)
卫星状态:
在轨 (已飞行502 天)
发射日期:
2024-12-13 UTC
国别 :
美国 (US)
星等 :
--
轨道信息
数据来源 国际轨道数据
星历时间: 2026-04-29T21:21:28+0800
9小时前
查看轨道信息
半长轴: 6853.347km
偏心率: 0.0001293
轨道倾角: 53.159°
近地点辐角 94.326°
升交点赤经 317.516°
平近点角 265.789°
近地点: 474.323km
远地点: 476.097km
周期: 94.105分钟
每日圈数: 15.30202
详细信息
固有亮度:
5
最大亮度:
2.5
卫星平台:
Starlink V1.0
覆盖范围:
全球
运营商:
太空探索技术公司
运营商所在国:
美国
制造商(研发单位):
太空探索技术公司
制造商所在国:
美国
使用方式:
暂无
卫星简介
Starlink 计划是 SpaceX 推出的全球卫星互联网项目,通过发射低轨道卫星,为全球尤其是偏远地区提供高速、低延迟的互联网服务。自 2019 年起,Starlink 已部署数千颗卫星,旨在缩小全球数字鸿沟,推动互联网普及。该项目还为军事、航空等行业提供通信支持,带来广泛经济效益。
2D轨道图
3D轨道图
轨道高度分析图
轨道倾角分析图
轨道综合分析图
查看轨道综合分析图